Regional Weather Roundup
Issued by NWS

Home | Current Version | Previous Version | Text Only | Print | Product List | Glossary On
Versions: 1 2 3 4 5 6 7 8 9 10 11 12 13 14 15 16 17 18 19 20 21 22 23 24 25 26 27 28 29 30 31 32 33 34 35 36 37 38 39 40 41 42 43 44 45 46 47 48 49 50
000
ASUS42 KKEY 291410
RWRKEY

FLORIDA REGIONAL WEATHER ROUNDUP FOR THE FLORIDA KEYS
NATIONAL WEATHER SERVICE KEY WEST FLORIDA
900 AM EST THU JAN 29 2015

...SOUTH FLORIDA AND THE KEYS...

CITY           SKY/WX    TMP DP  RH WIND       PRES   REMARKS
FORT MYERS     SUNNY     54  45  71 NE9       30.29R
SW REGIONAL AP SUNNY     54  45  71 NE7       30.29R
NAPLES         SUNNY     57  46  66 NE10      30.27R
MIAMI          PTSUNNY   62  50  64 VRB3      30.25R
WEST KENDALL   SUNNY     60  51  72 N3        30.25R
HOMESTEAD      MOSUNNY   58  51  77 N6        30.25R
MARATHON       MOSUNNY   61  55  81 NE14      30.23R
BOCA CHICA NAS MOSUNNY   64  56  75 NE10      30.23R
KEY WEST INTL  SUNNY     63  57  81 NE13      30.23R

...INTERNATIONAL WEATHER...

CITY           SKY/WX    TMP DP  RH WIND       PRES   REMARKS
NASSAU BAHAMAS PTSUNNY   66  52  59 NE8       30.22R
CANCUN MEXICO  MOSUNNY   73  59  60 NE6       30.16R
COZUMEL MEXICO PTSUNNY   70  61  73 E9        30.15R

ADJACENT COASTAL WATERS...

STATION/POSITION TIME  SKY/WX   TEMP    WIND        PRES    WAVE
                                AIR SEA DIR/SP/G            HT/PER
                 (UTC)          (F)     (DEG/KT/KT) (MB)    (FT/S)
PULASKI SHOAL LI NOT AVBL
SAND KEY         NOT AVBL
SOMBRERO KEY     NOT AVBL
LONG KEY         NOT AVBL
MOLASSES REEF    NOT AVBL
FOWEY ROCKS      NOT AVBL
Buoy 42080       NOT AVBL

$$



USA.gov is the U.S. government's official web portal to all federal, state and local government web resources and services.